Weather History for Sidney, NE

Change the Weather History Date:

Wednesday, June 18, 2014

  Actual Average Record
Temperature  
Mean Temperature 67 °F 69 °F  
Max Temperature 80 °F 83 °F 105 °F (2012)
Min Temperature 53 °F 54 °F 38 °F (1975)
Degree Days  
Heating Degree Days 0 1  
Month to date heating degree days 53 49  
Since 1 June heating degree days 53 49  
Since 1 July heating degree days 6628 6211  
Cooling Degree Days 2 5  
Month to date cooling degree days 31 57  
Year to date cooling degree days 47 79  
Since 1 June cooling degree days 31 57  
Growing Degree Days 17 (Base 50)    
Moisture  
Dew Point 43 °F    
Average Humidity 46    
Maximum Humidity 66    
Minimum Humidity 26    
Precipitation  
Precipitation 0.34 in 0.10 in 1.28 in (1970)
Month to date precipitation 1.91 2.02  
Year to date precipitation 6.91 8.78  
Sea Level Pressure  
Sea Level Pressure 29.77 in    
Wind  
Wind Speed 18 mph (NNW)    
Max Wind Speed 36 mph    
Max Gust Speed 47 mph    
Visibility 10 miles    
Events Rain , Thunderstorm    
T = Trace of Precipitation, MM = Missing Value Source: NWS Daily Summary

Daily Weather History Graph

Daily Weather History Graph

Search for Another Location

Airport:

Trip Planner

Search our weather history database for the weather conditions in past years. The results will help you decide how hot, cold, wet, or windy it might be!

Date:

Astronomy

Jun. 18, 2014 Rise Set
Actual Time 5:19 AM MDT 8:27 PM MDT
Civil Twilight 4:45 AM MDT 9:00 PM MDT
Nautical Twilight 4:02 AM MDT 9:44 PM MDT
Astronomical Twilight 3:10 AM MDT 10:35 PM MDT
Moon No Moon Rise 11:48 AM MDT (6/18)
Length of Visible Light 16h 15m
Length of Day
15h 08m
Waning Gibbous, 62% of the Moon is Illuminated
Jun 18
Waning Gibbous
Jun 19
Last Quarter
Jun 27
New
Jul 5
First Quarter
Jul 12
Full

Hourly Weather History & Observations

Time (MDT) Temp. Dew Point Humidity Pressure Visibility Wind Dir Wind Speed Gust Speed Precip Events Conditions
12:53 AM 63.0 °F 43.0 °F 48% 29.50 in 10.0 mi SSE 11.5 mph - N/A   Clear
1:53 AM 55.9 °F 44.1 °F 64% 29.52 in 10.0 mi SE 6.9 mph - N/A   Clear
2:53 AM 61.0 °F 43.0 °F 52% 29.56 in 10.0 mi NW 23.0 mph 28.8 mph N/A   Clear
3:53 AM 59.0 °F 39.0 °F 48% 29.63 in 10.0 mi NW 20.7 mph 27.6 mph N/A   Clear
4:53 AM 55.9 °F 37.0 °F 49% 29.67 in 10.0 mi NW 24.2 mph 35.7 mph N/A   Clear
5:53 AM 54.0 °F 37.0 °F 53% 29.70 in 10.0 mi NNW 19.6 mph 29.9 mph N/A   Clear
6:53 AM 55.9 °F 39.0 °F 53% 29.73 in 10.0 mi NNW 19.6 mph 28.8 mph N/A   Clear
7:53 AM 60.1 °F 37.9 °F 44% 29.74 in 10.0 mi NNW 23.0 mph 32.2 mph N/A   Clear
8:53 AM 64.9 °F 39.9 °F 40% 29.75 in 10.0 mi NNW 18.4 mph 26.5 mph N/A   Clear
9:53 AM 70.0 °F 42.1 °F 36% 29.75 in 10.0 mi NNW 15.0 mph - N/A   Clear
10:53 AM 73.0 °F 39.9 °F 30% 29.75 in 10.0 mi NNW 16.1 mph - N/A   Clear
11:53 AM 73.9 °F 41.0 °F 30% 29.76 in 10.0 mi North 16.1 mph - N/A   Clear
12:53 PM 78.1 °F 42.1 °F 28% 29.74 in 10.0 mi North 13.8 mph 19.6 mph N/A   Clear
1:53 PM 79.0 °F 42.1 °F 27% 29.75 in 10.0 mi North 15.0 mph 20.7 mph N/A   Clear
2:53 PM 80.1 °F 42.1 °F 26% 29.73 in 10.0 mi North 15.0 mph 23.0 mph N/A   Clear
3:53 PM 79.0 °F 45.0 °F 30% 29.74 in 10.0 mi NNE 15.0 mph 26.5 mph N/A   Clear
4:53 PM 79.0 °F 42.1 °F 27% 29.75 in 10.0 mi NE 11.5 mph - N/A   Clear
5:53 PM 77.0 °F 41.0 °F 28% 29.77 in 10.0 mi North 13.8 mph - N/A   Clear
6:53 PM 72.0 °F 39.0 °F 30% 29.77 in 10.0 mi North 10.4 mph 24.2 mph N/A   Partly Cloudy
7:53 PM 71.1 °F 39.9 °F 32% 29.77 in 10.0 mi North 17.3 mph - N/A   Overcast
8:09 PM 66.0 °F 42.1 °F 42% 29.95 in 9.0 mi NW 33.4 mph 46.0 mph N/A Thunderstorm Thunderstorm
8:30 PM 55.9 °F 50.0 °F 80% 29.92 in 3.0 mi NW 27.6 mph 40.3 mph 0.09 in Rain , Thunderstorm Rain
8:53 PM 55.9 °F 51.1 °F 84% 29.83 in 10.0 mi NW 31.1 mph 42.6 mph 0.10 in Thunderstorm Thunderstorm
9:17 PM 55.9 °F 51.1 °F 84% 30.02 in 7.0 mi WNW 25.3 mph 35.7 mph 0.03 in Rain , Thunderstorm Light Thunderstorms and Rain
9:45 PM 55.0 °F 51.1 °F 86% 29.99 in 9.0 mi NW 25.3 mph 35.7 mph 0.07 in Rain Light Rain
9:53 PM 55.0 °F 50.0 °F 83% 29.89 in 10.0 mi NW 24.2 mph 33.4 mph 0.07 in Rain Light Rain
10:53 PM 55.0 °F 48.9 °F 80% 29.93 in 10.0 mi WNW 23.0 mph 34.5 mph 0.03 in   Overcast
11:53 PM 54.0 °F 50.0 °F 86% 29.92 in 10.0 mi North 11.5 mph - 0.09 in Rain Light Rain